{"data":{"norad_id":56191,"epoch":"2026-05-25T02:42:20.156256Z","epoch_age_seconds":61226,"freshness":"FRESH","line1":"1 56191U 23054P   26145.11273329  .00001383  00000+0  54731-4 0  9990","line2":"2 56191  97.2731  33.0370 0004856 106.3957 253.7816 15.27075340173505","mean_motion":15.2707534,"eccentricity":0.0004856,"inclination_deg":97.2731,"raan_deg":33.037,"arg_perigee_deg":106.3957,"mean_anomaly_deg":253.7816,"bstar":5.4731e-5,"rev_number":17350,"period_min":94.297901503668,"perigee_km":481.22811979778,"apogee_km":487.89317175136,"semimajor_km":6862.6976457746,"source":"CELESTRAK","updated_at":"2026-05-25T13:38:24.930681Z"}}